Location: Casteau
(50.5142°N, 4.0161°E)
Time: 02:56:28
(UTC+00:00)

Cosmos 1655 Rocket - Pass Details

Date: 18 September 2020
Orbit: 971 x 1006 km, 82.9° (Epoch: 24 October)

Event Time Altitude Azimuth Distance (km) Brightness Sun altitude
Rises 21:03:39 0° 350° (N) 3,685 7.8 -28.6°
Reaches altitude 10° 21:06:10 10° 350° (N) 2,737 7.0 -28.8°
Maximum altitude 21:12:27 90° 18° (NNE) 989 3.9 -29.5°
Enters shadow 21:12:32 88° 170° (S) 990 3.9 -29.5°
